Theta_e
300 302 303 302 302 301 302 302 302 303 303 300 299 302 298 298 297 308 310 311 308 298 290 292 289 289 292 296 295 296 296 294 295 293 296 292 293 292 295 294 291 294 292 292 290 293 292 292 291 298 297 299 301 304 305 305 303 303 298 302 301 309 286 285 288 292 294 297 299 300 300 299 295 295 296 293 289 290 287 284 285 283 285 283 284 280 285
300 302 302 302 301 301 301 302 302 303 303 300 300 297 297 301 301 304 309 311 306 295 283 283 284 290 294 294 293 297 296 294 293 292 294 294 291 292 294 294 295 291 293 292 290 295 284 295 295 294 297 297 306 305 305 306 301 301 298 295 303 288 289 286 282 283 284 288 292 293 297 297 292 292 298 297 294 295 295 295 290 283 287 286 282 279 283
301 302 302 301 301 301 301 302 302 303 304 304 300 295 300 301 305 304 306 306 303 293 296 293 288 291 292 292 292 294 297 296 295 295 294 296 295 296 293 295 295 292 294 293 293 294 292 290 295 297 300 298 305 303 304 305 302 306 310 309 306 291 290 286 280 278 275 276 279 283 284 289 293 298 300 300 298 295 289 284 284 281 288 289 281 283 291
301 302 301 301 301 301 301 302 303 303 304 304 300 297 297 298 287 297 302 301 301 300 303 300 296 293 293 287 294 295 294 295 296 295 294 297 297 295 296 296 295 293 293 292 291 291 294 291 291 292 295 299 301 304 303 303 304 310 311 309 304 293 296 293 289 284 282 285 290 295 295 293 291 295 297 298 298 298 295 289 283 282 285 284 289 290 293
301 301 301 300 300 301 301 302 303 303 304 304 301 298 297 300 292 290 288 298 298 297 299 299 298 289 295 285 295 292 294 296 296 296 292 298 295 295 296 295 293 293 292 291 290 292 291 295 292 296 296 299 300 304 305 304 307 309 306 309 301 293 288 295 294 294 293 295 295 298 297 292 295 295 295 298 297 295 293 287 285 294 284 282 289 294 293
301 301 300 300 300 301 301 302 303 303 304 305 301 294 298 290 294 298 302 292 286 289 291 298 296 298 297 292 297 294 294 295 290 295 295 295 297 292 294 294 294 293 294 294 285 291 291 293 288 296 297 298 299 298 302 302 307 305 303 306 301 295 285 294 296 295 297 297 298 298 296 295 296 295 295 294 297 297 292 292 296 294 282 283 290 293 294
301 300 300 300 300 301 301 302 303 304 304 304 299 294 302 302 300 301 304 292 296 296 298 299 297 296 295 292 295 293 294 293 296 294 293 293 294 294 282 291 293 293 293 291 288 291 284 283 295 294 294 296 295 292 297 300 303 303 302 302 301 294 285 295 296 292 295 297 297 297 295 296 296 294 295 295 294 295 296 295 297 296 292 293 293 294 293
300 300 299 300 300 301 301 302 303 303 304 304 298 297 297 297 296 294 302 301 295 298 298 298 296 292 295 286 294 295 295 293 295 295 294 286 293 296 293 294 293 294 294 293 290 292 294 292 286 296 296 295 295 293 294 291 298 301 297 301 302 295 286 295 296 288 291 295 297 296 294 294 292 293 294 295 294 294 295 295 294 296 295 294 294 293 291
300 299 300 300 300 301 302 302 303 303 303 299 298 299 303 306 308 304 297 292 294 296 297 294 292 289 290 287 295 296 296 295 296 295 298 296 293 296 293 294 293 295 294 294 294 297 297 297 295 297 296 289 298 292 294 299 294 299 297 298 300 297 287 296 292 284 285 294 294 294 295 293 290 289 291 292 292 289 293 289 294 292 291 293 293 289 289
299 299 299 300 300 301 302 302 303 303 304 299 300 298 309 310 311 307 300 289 295 291 295 296 292 285 291 295 295 294 296 297 296 287 297 296 297 298 297 296 293 292 293 293 294 297 296 296 297 296 296 297 299 299 299 300 296 294 296 299 294 295 290 287 287 284 284 291 295 292 290 287 284 284 288 291 295 296 295 295 296 295 296 291 287 290 295
299 299 299 300 300 301 302 302 302 304 302 299 299 300 303 304 302 303 301 289 287 289 292 291 292 294 298 300 296 298 297 296 295 285 286 296 297 297 295 296 292 288 291 295 299 300 299 297 297 297 297 296 295 298 297 301 298 297 297 295 294 297 294 287 291 283 284 291 293 290 282 278 281 290 293 294 292 293 291 291 293 295 295 291 295 294 295
299 299 299 300 300 301 302 302 303 303 303 301 302 299 302 304 303 304 294 287 288 294 293 289 292 295 296 296 297 295 295 295 295 297 293 296 298 299 299 296 291 282 297 300 298 298 299 299 298 296 296 295 295 297 299 298 298 295 298 292 292 292 291 286 290 284 284 287 286 282 276 279 290 295 295 296 298 296 293 293 295 295 294 293 291 291 291
299 299 299 300 300 301 302 302 303 303 305 303 302 298 304 306 303 302 299 292 286 291 289 292 295 296 297 297 297 295 297 295 296 297 297 296 296 298 298 297 294 294 300 296 297 295 292 291 291 292 293 294 294 294 296 297 296 298 296 296 293 286 287 287 287 285 285 284 283 277 279 287 294 293 294 297 297 295 293 290 293 295 294 293 291 291 291
299 299 300 300 301 301 302 302 303 303 304 304 300 300 302 303 301 303 298 290 287 293 294 291 293 293 295 295 293 293 294 295 294 296 295 298 296 297 298 299 299 298 297 297 295 294 286 287 283 285 287 290 290 287 292 295 297 297 297 297 297 296 292 289 285 287 281 282 282 282 288 287 288 288 290 291 289 290 289 284 288 295 295 293 291 291 291
298 299 300 300 301 301 302 302 303 303 304 304 302 301 301 302 303 303 305 299 288 292 293 284 291 293 293 293 293 289 290 293 293 289 295 301 297 300 298 300 299 298 298 294 289 292 285 284 280 280 281 281 277 279 291 289 295 297 297 296 296 297 288 287 285 283 285 282 281 281 281 279 283 289 294 296 298 295 296 292 286 294 296 295 293 291 291
299 299 300 300 301 302 302 303 303 304 304 305 302 301 301 304 306 307 305 298 293 284 290 297 296 296 292 291 293 293 288 286 289 291 291 293 295 297 299 299 298 299 296 295 292 287 284 281 279 279 278 280 287 283 281 289 288 296 296 296 294 294 295 291 285 283 283 282 280 280 280 280 286 287 291 294 296 297 297 289 284 292 296 295 294 292 292
299 299 300 300 301 302 303 303 303 304 305 305 301 302 302 308 308 307 302 300 298 284 295 297 300 298 292 289 291 290 291 284 287 281 284 287 293 295 297 298 298 297 295 290 289 286 283 282 284 281 284 290 283 281 288 285 281 285 293 294 291 287 283 285 284 281 282 281 281 278 282 280 285 288 291 293 295 298 293 281 281 291 295 296 295 293 293
299 299 300 301 301 302 303 303 304 305 305 306 303 301 302 308 310 309 303 298 291 288 293 297 295 291 289 291 289 295 295 294 293 292 286 291 292 291 294 296 293 297 297 286 288 284 282 282 280 280 280 289 291 288 278 284 279 281 280 281 281 283 282 284 282 282 282 282 279 281 282 286 288 289 291 293 296 294 284 280 284 293 293 293 293 292 291
299 299 300 301 301 302 303 304 304 305 306 306 305 303 303 305 307 310 305 301 294 283 293 297 299 297 297 299 295 296 295 295 294 286 285 285 290 296 296 295 295 285 292 285 288 282 282 282 290 285 282 284 290 281 288 281 280 284 284 280 281 279 281 284 285 283 281 280 280 280 281 286 288 290 292 294 290 283 281 288 295 293 291 292 291 290 290
299 299 300 301 301 302 303 304 305 305 306 307 305 301 305 308 311 310 303 297 295 290 293 295 297 295 297 294 291 290 292 293 294 290 286 285 294 296 289 284 293 294 289 291 281 287 283 281 283 288 282 282 283 291 284 285 289 284 280 284 280 278 280 279 280 282 282 280 276 277 275 284 290 290 291 292 285 285 292 293 293 294 292 291 290 289 289
299 299 300 301 302 303 303 304 305 305 306 307 306 302 303 310 310 312 310 306 299 285 288 297 298 296 297 296 296 296 295 291 292 290 293 294 296 290 281 282 288 289 283 285 282 282 285 282 284 283 288 286 283 287 282 281 284 290 289 283 283 286 282 281 280 282 281 280 277 276 282 285 290 290 284 288 291 294 295 293 289 292 292 290 289 289 290
299 300 300 301 302 303 304 304 305 306 306 307 306 304 301 307 311 313 311 306 292 286 291 297 298 297 299 299 298 298 298 299 301 301 296 290 297 293 291 295 295 295 294 295 288 286 289 287 289 283 282 285 289 282 287 283 280 285 289 288 280 287 284 284 281 284 283 280 281 285 288 289 291 291 291 294 296 297 297 293 291 290 290 291 289 288 289
299 299 300 301 302 303 304 304 305 306 306 307 306 305 304 306 309 309 305 294 297 297 299 299 299 297 299 299 300 301 300 302 304 304 302 295 289 295 293 296 296 301 299 297 289 287 288 287 283 286 284 287 284 283 286 285 282 285 283 289 287 290 290 290 287 283 288 289 289 290 289 290 291 293 294 294 294 295 294 292 290 291 291 291 289 290 290
299 300 300 301 302 303 303 304 305 306 306 307 306 303 304 307 308 306 300 301 292 286 290 294 290 284 292 295 298 300 300 301 304 305 307 304 288 290 297 301 307 303 300 300 301 293 288 288 289 291 284 287 291 284 283 282 284 288 287 286 289 292 292 288 283 286 284 278 287 287 287 290 291 291 293 294 295 294 293 292 292 291 292 291 292 291 291
299 300 300 301 302 303 304 304 305 305 306 307 306 308 307 305 308 308 301 286 289 286 283 284 287 297 297 299 298 296 298 302 305 306 308 304 299 292 291 299 302 297 296 299 301 296 290 286 288 285 283 288 292 282 288 285 284 291 283 284 286 284 292 286 285 285 282 281 285 288 290 290 291 291 290 291 293 294 293 293 293 293 293 293 292 292 291
299 300 301 301 302 303 304 304 305 305 306 306 306 308 306 307 310 308 307 301 297 291 283 283 289 301 298 296 296 299 303 302 302 303 304 303 304 303 301 303 300 303 300 301 298 289 287 287 288 287 286 287 294 285 285 289 288 290 287 285 289 289 292 283 286 283 284 287 288 288 289 289 290 291 290 291 292 292 293 293 293 293 293 293 293 294 293
299 300 300 301 302 303 304 304 305 305 305 305 306 307 310 308 311 305 303 303 292 283 285 284 290 295 298 296 299 300 302 301 301 302 302 302 302 302 302 301 299 299 298 295 294 289 288 287 288 286 289 289 293 290 291 289 289 285 285 289 291 288 283 287 286 282 282 282 284 288 282 281 286 289 290 291 292 292 291 291 291 291 291 291 291 291 293
299 300 300 301 302 303 304 304 305 305 305 307 309 313 311 309 307 308 309 306 299 284 284 285 286 292 298 296 300 300 302 301 301 301 299 300 302 302 298 297 295 294 293 290 286 287 286 288 287 288 289 291 289 287 292 291 290 287 287 288 291 287 287 285 283 282 281 287 289 290 289 288 290 291 291 292 292 292 291 291 291 291 292 292 291 290 291
299 300 301 301 302 303 304 304 305 304 305 306 308 310 306 309 310 311 310 311 307 299 289 290 293 294 287 294 301 298 301 302 301 299 298 298 298 297 297 297 295 294 294 289 286 285 285 286 288 288 288 293 290 286 288 283 284 283 286 290 290 290 292 290 289 288 289 291 291 292 290 287 290 292 292 292 293 292 291 292 292 291 292 292 291 290 289
299 300 301 301 302 303 304 304 305 304 306 309 307 303 293 297 309 307 307 311 308 306 287 285 282 286 298 299 298 300 300 301 300 300 298 297 296 294 295 294 294 296 294 288 286 284 286 286 288 293 295 297 288 285 283 283 283 285 290 292 293 293 293 293 293 290 289 293 293 293 292 292 293 293 293 293 294 293 292 291 291 292 292 292 291 290 289
299 300 301 301 302 303 304 305 305 305 306 308 303 290 287 286 298 308 305 311 310 305 289 287 284 291 290 297 297 296 298 298 297 296 296 296 295 295 296 295 294 294 285 286 285 286 287 285 286 288 293 292 288 283 281 282 282 285 289 291 291 291 291 291 293 294 293 293 293 294 294 294 294 294 294 294 294 294 293 292 294 294 292 291 289 289 289
299 300 301 301 302 303 304 305 305 304 306 305 299 297 299 301 304 304 305 310 310 299 287 284 283 284 285 291 299 300 299 299 299 299 295 298 293 296 294 295 290 296 291 285 287 286 284 285 285 288 288 292 290 283 284 283 282 284 289 290 292 292 292 292 292 294 294 294 293 291 290 290 291 290 289 292 292 293 292 292 292 292 293 291 290 289 289
299 300 301 302 302 303 304 305 304 302 302 304 304 304 304 303 304 304 309 310 307 295 295 285 282 284 284 290 298 300 301 299 296 296 292 296 293 295 289 296 295 294 299 289 285 283 288 285 285 285 289 291 284 284 284 283 285 289 290 291 291 292 293 293 293 294 294 294 292 287 286 288 289 290 292 292 292 292 291 291 291 291 291 290 289 289 288
300 300 301 301 303 303 304 304 304 304 305 306 304 304 307 304 305 305 311 308 303 300 290 284 283 283 283 293 291 295 299 291 290 294 284 296 297 293 287 292 292 285 290 285 287 286 287 286 283 286 288 285 285 283 280 284 288 289 290 291 292 292 292 292 292 292 292 292 292 292 291 292 293 292 291 291 291 292 292 291 291 290 289 289 289 289 289
300 300 301 302 302 303 304 303 305 306 305 308 303 305 307 304 304 307 313 303 290 286 286 287 286 283 282 284 283 290 301 296 287 291 285 290 298 293 293 285 287 283 285 295 285 284 283 285 289 283 281 285 281 280 281 286 288 289 289 289 290 290 289 288 289 290 290 291 291 290 290 290 290 289 291 291 292 292 291 291 291 289 288 288 289 289 289
299 300 301 302 303 303 303 307 306 305 302 301 302 308 305 304 309 311 309 310 302 293 285 284 286 283 283 280 281 284 298 292 294 294 292 288 290 297 294 287 282 287 293 287 282 286 283 290 285 281 284 280 279 281 283 287 288 289 289 288 287 288 288 288 289 290 291 292 292 293 292 290 290 289 290 291 291 292 292 291 290 290 288 288 288 289 288
300 300 301 302 303 303 301 297 306 307 305 305 307 305 305 308 312 308 308 305 307 304 294 286 284 286 288 283 286 287 293 283 292 287 289 286 284 287 286 283 281 286 285 283 283 282 286 292 284 281 280 280 282 288 289 289 289 288 288 289 290 290 290 290 291 292 291 291 291 290 290 290 289 290 290 290 290 291 291 290 290 290 289 288 289 288 288
300 301 300 301 301 292 291 294 304 310 305 303 303 303 297 299 289 290 291 289 297 300 290 295 284 288 290 287 282 291 291 285 292 283 284 287 284 284 286 284 284 285 280 282 284 291 287 284 282 281 281 286 289 291 291 290 290 290 290 290 290 290 290 290 290 289 288 287 286 287 287 288 288 289 290 289 289 289 288 289 289 290 289 289 289 290 290
300 300 302 302 298 289 290 300 308 302 309 306 306 292 288 290 288 285 286 288 288 286 289 290 285 290 288 287 289 295 293 285 283 285 281 288 284 280 284 280 283 284 281 281 283 293 281 281 282 281 280 284 286 288 291 291 292 292 292 291 291 291 291 292 292 291 288 287 288 289 289 288 288 288 288 288 289 291 291 291 290 289 289 289 290 289 289
301 299 293 295 291 294 304 304 303 306 305 292 292 290 285 288 285 282 288 284 284 286 288 285 293 291 291 289 287 287 295 291 281 281 283 284 291 282 284 283 284 282 277 278 281 290 281 277 281 280 280 283 285 291 291 292 291 291 292 292 292 292 294 294 294 294 292 291 292 292 292 292 292 291 290 289 289 289 289 290 290 289 289 289 290 289 288
301 302 301 291 300 302 303 305 306 304 294 288 288 287 285 283 286 286 285 282 283 284 290 292 292 290 292 293 291 286 294 297 294 291 285 282 289 288 282 279 284 280 279 279 284 284 282 280 280 279 280 283 286 289 291 291 291 290 291 292 292 292 293 293 294 293 292 291 291 292 292 292 292 292 292 292 291 290 290 289 289 290 289 289 289 289 288
297 295 298 298 300 304 303 299 294 291 289 289 284 281 284 284 286 285 286 281 282 286 290 291 285 287 288 292 291 292 289 296 291 286 284 281 286 284 281 283 284 279 276 282 284 283 282 277 277 278 282 286 288 289 289 289 289 289 290 291 292 292 292 292 292 292 293 293 293 292 292 292 291 292 292 291 291 290 290 289 289 289 289 290 290 290 289
301 301 299 299 296 292 292 288 289 287 279 280 279 279 282 281 282 282 283 287 289 289 289 298 292 295 294 296 291 293 290 295 287 285 283 282 286 285 281 281 280 276 280 285 283 280 278 277 277 279 284 286 288 288 289 289 289 289 290 291 292 293 293 292 292 293 293 293 291 291 291 292 291 291 292 292 292 291 291 291 291 290 290 290 291 290 290
301 303 299 291 288 288 289 279 287 284 281 282 280 277 279 279 281 283 282 284 287 287 292 289 289 289 284 291 288 287 287 290 289 286 284 285 283 279 280 278 279 283 286 282 281 277 279 280 281 283 286 288 290 289 289 290 290 289 290 291 292 292 292 293 293 292 292 292 292 292 291 291 291 293 293 291 292 291 290 290 289 290 291 291 291 290 290
294 290 288 286 283 286 283 273 284 282 277 280 283 281 281 279 281 282 283 287 292 288 292 293 290 291 286 291 289 288 287 284 287 283 280 283 280 281 279 279 282 283 280 278 279 279 280 278 284 286 287 288 289 290 290 289 289 288 289 290 290 290 291 290 291 292 292 292 292 292 291 290 290 290 291 291 291 292 292 291 292 291 292 292 291 290 290
290 286 284 278 274 280 282 278 280 278 283 284 282 285 284 285 285 286 292 293 291 291 290 291 291 290 285 289 284 283 286 285 282 283 284 284 279 278 282 285 283 279 278 280 276 274 278 281 282 285 288 289 289 289 290 290 291 291 291 289 290 291 292 292 291 292 291 291 292 292 292 291 291 291 291 291 290 291 292 292 292 292 292 291 290 290 290
289 288 287 284 279 282 285 279 279 282 286 286 287 288 288 289 291 291 292 293 292 293 293 293 292 290 286 286 285 286 286 286 282 283 284 279 279 281 285 280 276 278 274 274 275 277 280 282 285 287 289 290 290 290 290 290 291 291 291 290 290 290 292 293 293 292 292 291 291 292 292 292 292 293 293 291 291 291 290 291 292 292 291 291 292 291 291
284 287 286 277 275 281 280 282 288 287 288 289 289 290 291 293 291 292 294 294 294 294 292 291 287 288 286 290 289 283 284 284 282 282 284 282 283 280 278 277 278 279 280 278 277 282 283 285 286 288 290 291 290 289 290 291 291 291 291 291 291 292 292 291 292 293 293 292 291 291 290 291 292 292 292 291 291 291 292 293 292 292 291 291 292 291 291
290 286 283 281 283 283 283 287 287 285 287 288 292 293 293 294 291 293 294 295 294 293 293 291 286 286 284 286 284 283 281 283 280 279 283 281 277 273 274 273 275 275 279 282 281 285 285 287 288 290 291 291 290 290 291 291 291 291 291 291 292 292 292 292 292 293 294 294 293 292 291 291 291 291 291 291 292 293 294 294 293 292 292 292 292 291 291
287 285 286 285 284 284 286 287 287 285 288 289 290 290 291 291 291 294 297 295 295 293 292 289 289 286 285 285 281 282 281 283 282 283 280 277 278 279 278 274 276 276 279 283 284 286 288 289 290 290 290 290 291 291 291 291 290 291 292 292 292 292 293 293 292 292 292 292 293 293 292 291 290 291 291 292 293 293 293 292 292 291 292 292 292 290 291
289 287 286 291 285 283 286 282 283 283 284 287 288 290 291 291 292 292 299 298 296 290 286 284 285 285 283 281 281 278 280 285 281 280 279 278 281 279 277 275 278 282 284 287 289 289 289 289 289 289 290 290 291 291 291 291 292 292 292 292 292 293 293 292 292 293 294 294 293 290 292 293 293 294 293 292 292 292 292 292 292 292 291 291 292 292 292
286 283 283 287 290 289 289 289 290 288 288 289 290 292 293 292 294 295 297 294 290 286 284 286 285 283 280 279 281 283 285 283 281 281 279 281 283 280 279 280 281 284 287 288 289 289 288 290 290 289 290 290 291 291 291 292 293 292 292 292 293 293 292 292 292 292 293 292 292 292 292 293 294 292 291 291 292 291 290 289 291 293 293 293 293 292 293
Wind_Speed
8 8 9 9 9 9 9 10 11 11 11 7 6 7 3 3 3 6 6 10 10 6 2 3 4 5 7 9 13 14 10 4 4 4 3 3 2 2 1 2 3 2 2 4 4 5 2 8 7 3 4 3 5 11 14 12 11 6 6 5 8 6 3 3 1 2 4 8 10 4 9 9 6 3 2 6 7 6 6 6 6 5 2 4 1 1 2
8 9 9 9 9 9 10 10 11 10 8 6 6 4 3 2 1 4 3 7 7 3 4 4 6 6 8 10 12 9 2 2 0 2 1 1 2 1 1 3 1 3 6 4 3 5 3 2 1 2 4 2 6 13 12 11 8 8 2 2 6 3 3 7 1 0 3 8 10 8 7 8 3 3 11 10 3 3 2 4 3 5 4 9 7 5 3
8 9 9 9 8 8 9 10 10 11 10 8 5 4 5 3 1 1 2 4 4 4 1 2 1 4 5 6 8 4 0 2 4 5 6 3 1 2 3 3 5 3 1 2 2 5 2 1 3 9 2 2 6 10 11 11 8 7 6 10 3 4 2 2 3 4 3 3 2 3 6 6 3 9 12 12 8 6 6 3 2 4 5 4 4 2 0
8 9 8 8 8 8 9 9 9 10 10 9 3 3 3 1 1 1 2 3 3 4 4 4 4 6 5 5 3 3 2 2 2 5 5 8 4 3 2 1 5 4 6 5 5 5 4 2 2 2 2 3 6 7 8 11 9 10 13 12 4 1 2 5 4 4 5 3 4 4 4 2 9 10 13 10 7 8 7 5 5 2 1 6 4 3 9
8 8 7 7 7 8 8 9 9 9 10 7 3 3 3 3 2 2 1 1 4 4 3 5 4 4 4 1 0 1 3 2 2 4 1 0 4 4 1 2 0 2 3 3 4 5 7 10 7 9 8 3 3 6 7 8 11 11 8 13 3 2 5 3 4 5 5 4 3 2 3 6 9 11 9 11 8 3 8 7 3 0 6 4 3 3 8
8 8 7 7 7 7 8 8 10 9 8 4 2 3 4 1 3 4 1 1 3 4 6 8 7 9 8 2 0 2 4 2 1 4 4 6 1 0 3 3 2 3 1 2 1 1 3 6 2 3 5 3 4 4 7 6 5 8 5 6 4 2 2 3 3 4 4 4 7 6 7 7 9 12 11 12 10 10 8 3 4 4 1 7 8 3 5
8 7 7 6 6 7 8 8 8 8 7 2 4 3 3 1 1 2 3 1 2 7 9 4 7 4 10 0 1 2 2 1 1 1 2 4 2 1 1 3 5 5 8 3 3 1 1 3 3 2 1 3 1 3 3 3 5 5 3 5 2 4 4 3 3 2 3 5 6 6 9 5 13 12 11 9 10 8 7 6 5 6 4 5 11 7 6
7 7 6 5 6 7 8 9 8 7 8 5 4 5 3 1 1 2 1 1 4 6 8 9 10 6 2 1 3 2 1 4 4 3 1 0 2 3 3 2 4 4 11 4 4 2 5 4 3 0 3 1 1 1 1 1 2 3 1 1 2 3 2 4 1 2 2 4 6 8 8 7 10 12 12 8 6 9 9 4 6 8 11 8 13 11 8
6 6 6 6 6 7 8 9 8 7 4 3 4 3 5 3 1 1 3 6 7 8 9 2 2 1 2 0 1 1 1 1 0 3 3 1 2 1 2 2 9 8 9 9 6 3 5 3 3 2 4 6 3 3 1 2 3 2 1 1 1 2 2 0 1 4 2 2 6 6 10 11 12 10 12 10 6 7 6 3 4 1 7 8 9 8 5
6 6 6 6 7 7 9 9 8 7 4 3 3 5 0 1 4 4 2 3 9 5 3 0 3 0 1 1 3 1 2 4 1 1 0 5 4 2 2 4 3 3 4 6 4 5 6 6 4 4 7 1 3 4 5 6 4 3 2 0 2 2 3 2 0 3 0 4 6 8 6 5 5 6 5 7 4 3 3 6 7 5 3 8 4 3 4
6 5 5 6 7 8 9 9 8 7 4 4 3 5 5 2 3 3 3 3 5 5 2 3 3 0 2 2 1 1 3 1 4 3 0 5 9 6 6 2 3 1 4 2 3 2 3 4 4 5 5 7 5 2 2 5 3 3 3 1 0 0 1 1 2 4 0 2 6 3 4 2 2 1 2 3 3 4 11 6 8 11 10 5 7 8 9
5 6 6 7 8 8 9 9 8 7 5 6 4 5 5 5 7 4 2 2 6 5 4 2 3 2 3 4 3 2 2 3 5 6 4 3 4 8 1 5 4 2 1 1 6 6 5 2 5 4 6 7 8 2 9 3 2 2 5 4 2 1 1 2 2 3 2 1 4 5 1 1 1 1 4 5 2 10 14 12 12 9 9 13 13 13 12
6 6 6 7 8 9 9 10 9 8 5 5 4 7 4 4 5 4 3 3 1 6 0 2 4 5 3 4 2 4 3 10 7 6 3 3 5 4 4 2 3 2 1 6 6 5 3 3 5 5 7 8 8 8 5 9 8 6 4 3 4 2 2 0 1 2 2 2 1 2 2 2 3 3 7 6 4 3 5 12 11 8 8 9 11 10 11
6 6 7 8 9 9 10 10 10 9 8 5 5 7 7 6 5 4 1 3 5 6 6 3 6 8 5 5 6 6 4 5 4 4 1 1 1 3 3 4 3 3 5 4 1 0 2 1 2 1 2 3 2 3 7 6 7 6 6 9 6 3 1 2 1 1 3 2 3 6 5 3 6 3 5 4 2 5 3 5 4 7 5 8 10 9 9
7 7 8 8 9 10 11 11 11 10 10 6 6 7 8 7 6 4 4 3 3 7 2 4 2 4 5 3 4 3 2 2 1 1 2 2 1 0 5 1 5 4 4 3 1 0 3 0 1 0 2 1 1 1 1 2 2 5 4 5 8 9 1 4 4 1 5 6 6 3 2 4 3 3 4 6 1 2 2 1 2 6 5 10 10 10 8
7 7 8 10 11 11 12 12 11 11 10 9 6 7 9 8 6 5 5 3 3 4 3 4 5 3 1 0 2 1 3 2 3 2 5 3 4 4 5 2 3 4 4 1 0 0 1 2 1 1 0 1 1 2 1 1 2 2 5 9 11 8 9 7 2 2 4 5 6 3 4 2 2 4 6 8 7 5 2 3 3 3 5 8 9 9 8
8 9 10 11 12 12 13 12 12 11 11 7 5 5 8 6 6 6 2 2 2 2 5 7 4 3 1 2 2 3 3 1 1 2 1 2 4 4 6 3 2 3 1 2 1 1 1 1 0 1 1 2 1 1 3 2 1 1 4 6 6 8 5 6 4 2 0 2 2 2 2 3 1 5 6 9 7 4 1 3 2 4 7 6 7 8 7
9 9 10 11 12 13 13 13 13 13 11 8 5 5 7 7 6 4 2 3 2 1 3 6 7 6 4 2 3 0 1 4 5 0 1 5 2 4 5 2 2 2 2 1 0 0 0 0 1 2 1 2 1 1 1 1 2 0 2 2 2 3 2 4 0 1 5 6 2 3 3 2 3 6 9 9 4 1 2 3 2 2 7 8 9 8 6
10 10 11 12 13 14 14 14 14 14 12 8 4 6 9 10 9 6 2 3 1 2 2 3 0 4 7 8 6 5 5 5 3 3 4 5 4 10 4 6 5 1 1 1 0 1 1 0 2 1 1 1 2 1 1 2 1 1 1 1 3 3 1 0 1 4 2 2 4 3 3 2 6 9 7 4 1 3 4 2 3 7 9 9 9 10 8
10 11 12 13 14 14 14 14 14 14 13 9 2 5 8 8 6 7 3 2 1 3 5 7 7 9 6 8 7 7 7 8 6 5 4 1 6 7 7 4 6 4 6 3 2 2 3 1 1 1 3 2 1 1 4 7 5 2 1 1 3 1 1 2 2 2 1 3 3 2 2 0 7 11 3 4 2 2 4 8 8 8 9 10 9 9 7
10 11 13 14 15 14 14 14 14 14 12 10 3 3 6 5 5 5 6 3 0 4 4 5 6 7 5 6 5 6 6 5 3 3 4 1 3 2 3 2 2 1 0 1 1 1 0 1 2 1 1 1 1 2 4 3 4 7 2 1 4 2 1 2 1 0 1 2 2 1 1 3 8 5 3 2 1 3 6 9 9 7 8 8 9 9 9
12 12 14 14 15 15 15 15 15 14 12 9 4 2 3 6 3 4 2 5 6 3 2 3 2 3 4 5 7 6 6 5 3 1 1 3 5 4 2 2 0 0 1 1 1 1 3 1 1 3 3 2 4 2 0 4 3 1 5 3 2 7 2 1 5 3 2 3 4 3 3 3 4 4 2 3 3 6 7 9 9 9 8 7 9 11 10
12 13 14 15 15 16 16 16 15 14 12 9 5 3 4 5 3 3 4 5 2 1 1 1 1 3 4 6 4 6 4 3 3 1 2 4 2 2 4 2 2 0 1 1 2 3 1 3 3 3 3 2 2 5 9 5 2 3 4 5 6 6 12 8 9 8 12 11 7 5 5 5 5 6 6 10 12 10 9 11 10 8 9 8 11 11 11
12 14 15 15 16 16 17 17 16 14 13 8 4 2 4 5 0 1 3 2 1 3 5 7 3 3 3 4 2 2 3 1 1 1 2 3 4 1 1 0 1 1 1 1 1 3 3 2 2 2 5 2 4 5 4 5 4 5 4 4 2 1 2 2 6 8 2 5 4 7 6 6 7 7 9 11 10 9 8 10 11 11 11 12 11 11 11
13 14 15 16 16 17 18 18 17 15 13 11 8 6 6 4 3 4 2 2 0 3 2 1 3 1 4 1 4 3 2 3 2 4 1 1 5 4 3 2 6 5 4 4 1 5 2 4 3 3 7 2 1 3 4 4 2 2 5 3 3 5 7 12 9 10 6 5 7 7 8 8 6 5 7 10 10 10 10 10 11 11 11 12 12 11 11
14 15 16 16 17 17 18 18 17 14 13 14 7 3 1 1 3 5 2 2 3 2 3 1 1 2 3 6 6 5 2 2 1 4 4 4 2 3 5 1 4 4 4 2 5 6 5 5 4 4 6 5 3 4 4 3 6 5 8 6 3 3 0 3 2 7 10 11 9 8 10 10 9 8 9 8 8 10 11 11 11 11 12 11 10 8 9
14 16 16 17 17 17 18 18 16 15 15 14 7 3 2 2 5 6 2 1 3 3 1 2 0 3 3 5 3 4 3 5 5 6 6 6 7 8 5 2 5 4 5 6 5 5 4 5 6 7 4 5 3 5 4 6 6 4 5 5 6 10 10 8 8 9 5 5 7 4 5 7 6 8 9 10 10 12 12 10 10 8 8 7 9 8 5
15 16 17 17 18 18 18 18 16 17 15 15 8 4 1 3 3 5 3 4 2 3 3 3 3 3 1 9 7 6 4 2 2 3 4 6 7 5 8 10 9 7 4 6 7 6 4 7 9 4 4 3 5 7 4 4 4 8 8 6 3 5 4 2 3 4 6 6 6 6 8 9 6 7 8 10 9 10 11 10 10 9 8 8 9 9 10
15 16 17 18 17 18 18 18 17 16 17 11 5 4 6 2 5 4 3 2 2 2 3 1 2 3 3 2 3 5 4 4 6 6 7 9 10 8 8 6 5 4 5 4 4 4 4 5 3 5 5 4 5 6 3 8 8 9 7 10 12 10 13 12 11 14 11 10 11 8 7 9 9 9 8 7 6 8 10 9 8 9 8 8 8 8 8
15 16 17 18 18 17 17 17 16 17 15 5 5 1 3 1 5 6 7 4 2 1 3 2 4 1 1 3 5 6 10 11 11 12 10 6 5 5 5 5 6 4 4 4 3 5 3 4 4 4 6 3 3 3 5 5 9 7 7 10 10 10 10 10 8 9 10 10 10 10 11 11 9 9 9 8 7 7 8 8 8 7 7 6 6 5 4
15 16 17 17 18 17 17 16 15 18 12 3 2 0 1 1 1 5 8 5 3 2 2 2 4 0 3 3 4 9 9 8 7 7 8 8 8 7 5 5 6 5 7 7 6 6 4 5 4 4 3 5 3 3 5 6 9 7 9 10 10 10 10 11 11 12 12 10 10 10 10 10 8 8 6 6 7 6 5 4 7 10 10 9 8 7 6
16 17 17 17 17 17 16 14 13 12 6 3 2 1 0 1 2 6 8 4 3 5 3 3 2 2 0 0 1 2 5 5 4 3 3 3 6 6 8 5 4 5 4 5 4 4 5 4 4 4 4 3 3 5 5 6 9 9 7 8 8 9 9 10 11 13 13 12 12 10 9 7 6 7 6 6 6 5 5 4 5 7 9 7 6 5 6
15 16 16 17 17 17 16 13 13 7 2 4 5 5 3 5 9 8 6 3 3 1 1 2 2 1 1 1 1 2 2 2 3 1 4 1 4 1 3 2 4 7 9 7 4 3 2 3 3 6 5 2 3 4 5 7 8 7 7 6 7 9 10 10 11 12 13 12 10 10 9 7 5 5 8 7 6 6 6 7 5 5 6 6 5 4 4
16 16 17 17 17 17 15 12 13 10 3 0 1 0 1 1 5 5 4 1 0 1 2 2 1 1 2 3 2 1 1 2 4 1 3 3 3 4 5 3 3 3 3 4 2 4 4 5 6 6 5 6 3 3 6 6 8 8 7 6 6 6 6 8 8 9 8 8 7 7 9 10 9 7 6 7 7 5 6 4 5 5 6 8 7 6 6
16 17 16 17 17 15 15 10 5 1 1 1 2 1 3 9 6 4 3 2 2 1 1 1 2 3 1 1 2 1 1 0 4 2 4 2 1 3 2 3 1 4 1 0 3 3 3 3 3 5 6 3 3 4 3 5 6 7 8 10 10 11 9 10 8 9 9 7 7 7 8 9 10 8 9 8 7 8 7 7 8 4 5 5 7 8 7
16 17 16 17 16 10 5 1 1 2 1 0 1 2 5 9 5 3 2 1 2 0 1 2 2 3 2 3 3 1 1 3 1 2 3 1 3 2 2 2 6 4 0 2 4 3 4 3 2 5 1 3 3 2 4 5 9 9 8 7 5 5 7 10 9 7 7 6 6 5 7 6 7 7 8 8 8 7 8 8 6 7 6 5 5 4 4
16 17 18 14 5 0 1 1 1 0 2 2 6 9 8 5 1 1 0 1 1 1 1 1 1 3 3 3 0 1 1 4 0 3 1 2 2 1 3 2 4 1 3 4 5 5 5 4 5 4 3 3 4 6 7 7 8 8 7 7 7 8 7 6 6 9 10 11 11 8 7 7 5 4 5 4 5 6 9 9 7 6 7 5 4 4 4
17 14 4 1 0 0 0 1 0 1 4 6 6 1 5 5 1 1 1 1 1 1 1 0 1 3 3 5 2 1 1 2 0 3 1 1 2 1 1 2 1 1 5 2 3 2 3 3 3 4 4 4 6 7 6 6 7 8 8 8 8 8 6 5 5 8 8 7 6 5 6 6 5 4 6 6 7 6 5 5 5 4 4 5 7 10 11
8 3 1 1 0 0 1 3 1 3 1 1 2 1 1 1 1 0 1 1 1 1 1 1 1 3 5 5 2 1 1 3 4 1 2 2 2 0 1 2 1 2 1 2 2 1 3 3 3 3 5 3 4 3 4 5 6 8 8 7 6 5 5 5 6 6 6 6 5 4 6 7 7 6 5 5 5 5 7 8 6 6 6 9 10 10 10
1 1 0 0 1 0 1 2 3 1 0 1 0 0 0 0 1 0 1 0 1 1 0 1 1 3 4 7 4 1 2 1 4 3 2 1 1 2 1 1 1 2 2 2 2 0 3 4 2 2 3 3 4 3 4 8 9 8 8 7 5 4 4 5 5 6 8 7 7 7 7 7 6 7 6 6 5 6 6 7 6 5 5 6 9 10 9
2 1 1 1 1 1 1 1 0 1 0 0 0 0 1 0 1 1 0 1 0 0 1 1 2 3 3 4 3 2 1 0 0 3 3 2 2 1 1 0 0 2 1 1 1 2 3 3 3 4 4 5 5 3 5 6 6 6 6 6 5 5 4 5 8 8 7 8 7 7 8 8 8 7 6 6 6 7 6 6 6 5 4 5 9 10 8
1 2 3 4 7 1 2 1 1 0 1 0 1 0 0 0 0 0 0 1 0 0 2 2 3 2 3 2 3 2 1 1 1 2 2 1 1 1 1 1 0 1 2 1 2 2 2 2 3 4 5 7 5 6 7 6 5 4 3 3 6 6 5 5 7 8 8 8 7 6 6 6 5 4 5 5 5 6 6 5 6 5 4 6 10 8 7
15 10 5 3 2 1 0 1 1 1 1 1 2 1 0 1 1 2 1 1 0 0 1 3 3 1 3 2 3 2 1 0 1 1 2 1 1 0 1 0 0 1 1 1 1 2 3 3 3 5 5 5 6 6 7 7 5 5 2 1 3 4 8 6 7 10 9 9 8 6 5 5 5 5 6 6 7 6 5 4 4 3 2 4 7 7 7
6 3 2 1 1 1 0 0 1 2 2 1 1 1 1 0 1 0 1 1 0 1 1 3 2 4 3 1 2 0 1 2 1 1 1 0 1 1 0 1 0 0 1 0 1 3 3 2 4 7 7 9 8 7 7 6 6 5 3 3 2 3 4 6 8 9 10 8 7 6 6 5 4 4 4 4 6 7 6 5 5 5 2 2 6 9 7
1 1 1 2 1 0 1 2 3 0 1 1 1 1 2 3 3 3 3 3 1 5 4 3 5 4 5 1 2 2 1 0 1 1 1 0 1 0 1 1 1 1 1 1 1 3 3 2 4 8 7 8 9 8 8 7 6 5 5 4 4 4 4 5 6 8 8 8 8 7 6 5 6 6 5 5 4 3 5 5 4 5 4 4 6 6 6
0 1 1 3 3 2 0 1 1 1 1 2 3 5 5 6 4 3 1 2 4 5 4 5 6 7 4 1 2 2 0 1 1 0 0 0 1 0 1 0 1 1 1 1 2 3 6 6 7 8 7 9 9 8 7 6 6 6 5 5 3 2 1 3 7 7 6 7 7 8 7 5 6 6 6 5 3 2 4 3 2 4 4 4 4 5 4
1 0 1 0 1 1 1 2 3 3 3 4 5 6 6 6 3 5 3 4 6 5 5 5 6 5 5 1 1 1 1 1 1 0 1 2 1 0 1 1 0 1 1 1 2 3 3 5 7 7 10 10 9 8 7 6 6 6 6 4 4 3 1 2 4 8 7 6 6 6 5 5 5 6 6 5 4 4 5 3 3 2 4 3 1 3 4
0 1 0 2 2 1 2 3 3 3 5 5 5 6 4 3 5 3 4 4 5 5 7 7 5 3 2 1 2 3 1 1 2 2 0 1 1 1 1 0 0 1 0 2 3 6 6 7 7 9 10 10 10 8 7 7 7 7 6 5 3 1 2 5 5 6 6 6 5 5 5 6 5 4 4 4 3 3 3 2 3 3 3 2 1 2 5
2 0 1 1 1 1 2 4 3 5 8 6 5 6 6 4 5 7 6 5 5 5 7 6 3 1 1 1 2 2 1 1 1 1 0 1 1 1 1 1 1 1 1 1 6 9 8 8 8 11 11 11 9 9 7 7 8 7 6 5 2 2 4 5 5 5 5 5 5 5 5 5 4 2 3 3 4 5 4 5 5 4 3 2 2 2 1
0 1 1 1 1 2 5 5 3 1 1 4 3 4 6 8 5 4 3 4 4 6 5 5 2 1 2 1 1 1 1 0 1 0 1 1 1 1 0 1 1 2 2 2 7 7 8 8 9 11 11 11 10 9 8 8 8 7 6 5 4 3 5 6 6 5 4 5 5 5 5 5 2 0 2 4 3 2 1 1 3 2 1 2 3 2 1
1 0 1 1 1 2 2 1 1 2 2 2 1 1 4 6 3 4 2 3 4 5 2 1 1 1 2 1 0 1 0 1 2 1 2 2 1 1 1 2 2 0 5 8 9 8 9 8 9 10 10 8 8 10 10 8 7 7 7 5 4 3 6 5 4 1 3 6 6 6 4 2 1 3 3 3 3 1 1 0 2 4 5 4 3 2 1
0 0 2 3 4 5 8 4 2 6 4 3 2 1 6 6 4 4 4 6 4 3 3 1 1 1 1 1 1 1 0 0 1 1 1 1 1 2 2 5 2 5 9 9 9 8 8 9 9 8 8 8 10 10 9 7 8 7 6 5 4 6 6 5 5 3 4 5 5 4 2 1 1 3 4 2 1 1 0 3 3 0 3 5 4 3 3
Wind_Direction
291 307 313 314 321 320 322 327 332 328 335 328 345 315 235 216 269 274 291 134 148 150 242 206 222 228 243 262 257 255 256 310 20 4 125 202 177 285 259 317 3 303 347 348 345 351 68 34 11 25 88 24 31 17 27 28 21 45 13 347 349 3 97 121 250 351 314 320 309 303 199 197 254 287 289 179 204 204 185 182 184 147 183 89 51 68 242
295 313 310 313 315 319 323 326 329 326 333 325 319 299 267 331 308 299 159 148 176 185 195 196 231 241 263 253 264 271 347 4 171 223 219 239 154 222 294 336 295 283 354 339 335 46 46 36 117 71 54 20 16 38 31 38 45 27 330 80 303 39 317 111 81 23 344 337 341 346 16 45 45 50 10 357 309 213 186 91 60 95 216 156 127 178 217
302 312 312 321 315 316 321 324 328 323 325 321 329 301 328 314 339 358 277 165 190 218 264 310 305 266 264 272 246 286 76 277 299 350 339 290 254 59 1 321 4 313 213 346 7 327 32 1 86 122 64 106 42 39 38 35 57 34 356 7 321 109 272 69 125 140 157 222 274 346 312 318 295 40 23 21 25 53 51 48 11 94 331 65 81 117 43
307 313 317 316 315 315 319 323 322 317 316 321 295 277 279 174 165 257 262 170 218 272 285 287 270 290 300 287 284 260 293 241 198 0 319 324 67 143 343 3 33 346 9 11 351 336 352 39 309 52 45 70 34 8 44 50 32 15 26 13 15 68 14 79 103 122 149 154 189 217 243 313 40 20 31 20 26 61 91 110 64 95 134 57 345 164 145
311 313 312 314 316 313 317 321 318 313 309 305 262 266 261 321 240 134 200 157 242 255 237 237 223 246 223 244 229 307 290 282 2 93 299 105 11 5 58 303 36 300 67 6 19 346 348 6 23 51 86 61 82 30 13 28 22 29 35 357 26 54 56 14 87 62 127 117 126 190 314 52 40 44 24 23 26 31 86 100 170 114 84 23 288 330 120
307 308 310 313 310 313 315 320 316 313 317 317 204 234 198 179 292 311 275 130 208 207 262 228 251 260 257 224 273 245 239 189 133 0 292 316 170 38 5 322 296 313 115 127 95 36 346 56 89 304 51 80 20 34 8 44 19 46 20 351 58 65 91 341 51 51 60 49 69 65 66 56 62 55 36 23 8 42 62 59 100 77 121 177 200 165 117
308 309 311 312 310 311 314 314 312 306 308 234 236 258 202 244 220 291 309 290 274 191 225 241 222 218 266 66 37 325 296 234 163 201 176 259 87 138 59 297 277 239 225 130 181 109 166 27 80 97 29 25 23 44 356 23 27 36 43 27 39 73 5 324 83 86 77 69 65 65 78 66 62 53 46 24 19 21 41 43 11 119 144 153 132 94 86
308 313 312 308 308 309 313 317 316 318 312 279 239 245 303 170 81 258 307 351 283 291 258 226 215 193 232 54 198 184 176 269 144 214 63 1 319 226 148 279 269 347 12 11 110 106 128 147 95 22 116 348 27 136 154 227 356 64 54 80 353 91 235 272 14 81 93 92 80 76 76 89 72 44 41 32 24 29 19 35 17 43 87 113 115 113 102
308 312 312 312 312 316 317 319 321 317 339 259 223 258 208 281 278 21 351 321 291 253 230 197 185 119 28 69 21 21 192 237 138 279 73 63 199 12 296 330 29 2 45 5 54 85 91 69 39 339 110 156 227 139 248 157 132 123 24 340 55 84 201 222 307 75 334 79 102 95 90 84 78 44 26 17 27 36 355 38 339 86 132 118 102 98 121
310 310 310 314 315 319 316 319 323 309 307 284 287 250 321 302 244 231 208 246 251 242 215 163 96 2 221 142 165 206 236 158 309 322 233 270 197 175 147 65 80 13 33 37 67 27 35 37 348 333 329 341 186 189 154 179 156 177 118 223 114 148 140 96 164 78 164 181 115 113 101 66 33 10 337 349 39 120 71 49 37 26 94 107 135 128 90
321 312 305 309 314 314 317 318 319 312 295 264 279 292 330 320 341 300 222 244 291 245 168 169 124 204 107 186 98 59 312 248 150 127 245 29 12 41 64 82 87 61 73 245 283 51 38 24 345 329 318 305 299 162 104 50 29 48 146 84 256 348 125 163 124 122 171 9 110 104 67 103 116 244 249 341 346 65 68 36 43 48 67 78 62 73 79
321 317 312 313 313 315 316 315 313 304 287 280 288 284 272 290 283 274 311 359 289 279 98 114 111 224 195 208 185 121 339 30 59 56 45 18 12 346 36 72 75 47 280 287 15 23 20 318 255 256 269 286 295 240 137 151 227 140 143 138 162 219 56 140 115 101 172 153 73 56 104 120 183 275 1 346 49 80 82 62 52 60 71 84 81 76 75
323 316 315 314 314 314 316 316 311 304 287 280 269 267 285 321 307 284 280 249 280 305 40 154 183 164 200 160 133 138 188 73 64 38 53 33 348 345 344 98 112 191 242 40 12 354 0 282 298 257 218 221 240 257 198 169 183 178 178 163 119 138 135 179 43 127 73 89 134 152 165 191 152 77 21 349 15 6 76 57 43 59 73 86 94 107 105
322 321 314 317 317 317 319 313 311 305 294 284 262 258 271 280 279 291 325 354 305 302 12 44 48 42 24 57 43 360 41 58 93 95 13 158 200 311 312 329 99 121 69 97 77 311 3 7 295 319 291 193 221 201 208 96 46 67 35 9 358 156 171 101 222 132 132 110 52 79 114 105 23 6 14 7 356 352 21 94 46 19 95 99 108 105 112
320 316 316 323 324 320 318 315 313 307 301 288 267 263 258 250 248 269 309 308 315 303 14 64 345 71 49 28 54 349 10 48 107 207 222 98 21 273 266 357 67 87 114 74 38 44 193 93 12 40 335 54 135 236 48 58 32 47 68 36 31 360 346 219 133 289 112 127 114 105 151 175 167 40 351 354 328 242 294 62 87 12 41 117 118 123 130
322 322 327 326 322 321 319 319 315 310 304 292 269 265 261 246 251 261 255 250 333 350 344 63 21 34 38 113 353 153 288 160 220 194 162 167 200 205 238 116 119 76 41 56 167 231 28 94 255 75 229 179 65 51 350 53 23 12 33 53 31 23 34 30 80 187 79 132 139 158 175 112 62 344 328 325 337 338 341 78 54 5 355 111 118 125 133
326 324 327 324 322 322 322 321 318 312 309 297 274 272 276 238 208 232 272 309 207 237 351 42 20 33 340 39 29 359 11 31 345 57 17 239 204 248 127 92 53 64 123 44 346 8 67 129 223 205 285 67 82 196 107 82 86 12 27 48 44 48 21 36 351 96 105 138 90 122 59 151 38 324 313 316 316 310 61 131 193 24 19 58 101 105 101
323 325 326 325 325 325 324 323 320 315 310 294 256 265 269 280 262 278 236 197 250 320 359 35 36 25 3 285 105 100 6 346 335 1 115 288 64 26 129 163 88 64 53 143 327 12 12 138 154 197 185 302 91 38 101 102 84 230 339 353 20 10 11 60 277 205 72 86 93 86 107 68 349 313 309 308 315 352 174 198 112 74 66 58 69 69 69
328 326 326 328 329 328 325 325 322 318 314 300 265 263 255 245 259 246 229 270 187 92 344 56 344 70 14 18 46 14 26 26 24 68 346 5 12 316 312 78 52 24 325 24 166 191 167 272 69 67 105 307 34 57 8 49 153 55 0 48 39 13 31 340 83 38 92 118 84 99 58 12 328 306 293 318 339 137 140 82 93 92 74 62 68 75 67
323 327 330 332 331 329 327 325 322 318 314 308 232 257 275 284 257 197 213 286 3 68 13 35 35 63 45 42 29 30 8 22 14 65 50 52 293 346 30 17 341 67 5 35 22 339 81 82 293 18 25 54 351 81 65 70 58 80 128 280 109 240 72 78 57 298 34 66 101 115 138 162 354 316 321 8 110 116 97 93 67 75 84 84 73 82 82
326 330 332 333 332 329 328 325 321 318 314 312 251 266 301 263 237 227 196 170 33 79 8 21 62 51 57 52 42 69 76 75 14 54 322 335 306 59 103 189 271 9 299 107 121 267 12 75 43 71 213 87 238 55 131 142 73 33 67 133 104 220 139 108 100 276 118 81 84 147 323 308 325 341 127 316 103 96 96 107 91 72 80 87 93 81 91
333 333 332 333 331 330 328 324 320 317 316 312 290 257 254 270 267 288 77 117 93 119 166 90 79 104 88 118 105 76 67 82 83 45 51 22 6 82 138 123 283 123 233 319 22 74 18 145 70 56 26 337 27 104 300 70 38 338 24 41 48 344 90 302 109 340 53 95 103 99 82 18 321 342 30 98 118 120 109 96 101 105 93 100 100 104 98
332 334 333 333 332 331 328 323 320 318 315 308 289 232 261 296 321 343 68 57 27 36 335 22 36 70 93 71 69 113 124 149 137 71 102 101 73 30 81 66 330 233 237 115 158 145 177 95 138 152 96 35 102 74 51 54 101 1 56 20 123 127 112 116 90 77 88 68 75 98 66 49 24 28 48 78 82 84 98 108 107 100 110 112 113 114 109
331 333 334 333 333 330 328 323 320 320 313 302 228 268 262 256 300 21 42 65 123 58 355 359 55 20 21 63 58 87 102 77 105 162 132 124 111 95 35 152 78 357 20 74 153 140 188 123 112 93 96 348 355 74 102 98 78 116 106 99 103 107 135 57 87 180 104 69 45 61 63 47 43 58 65 69 72 83 94 98 98 105 110 111 111 113 118
334 335 335 335 334 333 326 323 321 322 314 310 310 232 220 317 33 32 72 110 56 87 124 308 352 251 92 117 135 117 100 138 130 107 128 63 106 142 162 187 172 162 178 180 109 60 45 81 55 59 85 353 57 62 349 96 51 325 109 120 119 80 91 80 65 66 69 110 105 90 73 59 42 46 79 88 90 89 91 102 109 113 118 118 123 126 125
338 337 336 336 335 331 325 321 323 320 324 320 292 269 303 136 349 28 7 119 122 110 107 128 264 309 109 88 60 47 40 56 88 137 135 138 152 146 141 94 52 62 86 76 68 72 62 54 74 69 89 66 353 96 72 34 103 77 77 42 31 94 209 52 111 101 96 95 94 105 85 58 49 55 62 73 96 105 102 104 110 119 119 123 128 136 141
340 338 337 337 334 330 326 325 325 329 325 325 336 335 270 73 51 68 82 330 80 28 27 69 234 113 82 93 137 130 73 43 29 50 55 62 63 62 59 58 102 102 88 77 63 81 41 65 73 75 49 86 81 78 87 68 55 73 77 92 78 75 90 125 118 107 110 125 153 184 108 103 76 76 82 84 86 93 96 99 100 103 103 102 102 98 103
339 338 338 336 334 331 328 328 326 331 333 334 328 266 197 93 87 64 42 75 97 162 144 98 85 114 47 66 42 47 58 67 73 77 77 68 50 58 71 74 72 73 59 78 74 75 95 89 94 123 111 123 95 60 40 83 91 64 47 35 36 101 139 136 79 111 111 106 112 89 103 105 106 103 93 92 91 92 96 98 101 100 100 103 99 96 90
337 338 337 334 332 333 330 328 328 333 335 326 323 356 51 49 89 51 31 23 69 87 88 114 32 38 59 157 152 128 137 119 99 93 82 67 62 55 58 65 78 88 73 69 95 107 107 113 135 95 98 149 94 102 105 66 63 72 73 77 73 79 88 94 104 104 101 106 110 120 120 117 122 112 104 97 95 103 107 108 105 103 102 99 94 96 100
336 336 335 332 332 332 330 327 330 333 332 339 8 26 57 352 45 35 7 13 25 70 88 83 77 39 53 59 71 62 58 46 47 47 42 47 65 76 59 54 49 55 100 120 123 95 88 90 52 60 70 19 75 148 89 101 87 76 85 88 93 98 106 115 125 113 127 135 125 124 118 114 115 118 117 122 124 119 116 120 123 119 110 98 89 82 86
334 333 332 331 330 329 329 329 331 336 345 355 0 74 89 111 310 9 348 340 7 93 105 93 108 146 55 42 78 71 72 63 62 57 52 49 46 47 41 55 48 50 56 30 45 61 54 66 63 59 56 33 54 86 98 97 96 97 94 99 104 105 105 109 113 114 120 126 128 126 122 121 128 130 126 133 141 143 140 140 122 111 112 109 114 116 104
332 331 330 329 328 327 325 326 330 340 331 23 65 127 179 229 258 301 305 304 13 62 77 72 30 16 107 350 61 134 106 92 76 58 49 42 59 43 48 49 72 31 80 81 61 57 47 70 80 93 92 71 68 79 69 81 99 107 120 111 118 120 124 120 120 123 126 133 134 126 121 133 152 144 148 157 137 132 130 127 127 132 129 124 128 121 129
328 327 327 327 325 323 319 315 323 337 318 304 286 298 245 249 275 272 295 359 42 121 128 76 99 185 84 151 74 27 83 90 69 67 81 112 109 101 44 355 31 40 26 63 16 81 29 77 52 66 61 62 70 83 82 85 98 120 123 128 130 136 135 134 130 134 140 147 141 133 145 151 162 158 146 143 140 133 133 137 148 134 126 121 117 110 102
323 324 325 324 320 318 313 308 307 300 270 329 45 1 183 347 320 293 352 48 70 248 96 107 107 72 97 296 63 244 349 96 94 31 57 358 101 80 104 81 52 73 13 92 70 65 49 61 73 85 57 59 59 78 88 110 123 122 125 125 116 103 98 99 104 107 106 102 108 130 149 156 155 150 144 147 151 149 148 153 140 139 148 142 148 158 159
320 322 323 320 314 308 307 314 340 324 312 267 95 205 310 317 280 281 58 82 47 24 70 35 94 87 61 325 108 224 231 27 124 175 127 219 219 126 168 69 62 80 172 197 62 107 101 83 127 69 82 64 48 77 88 120 104 96 86 88 87 86 82 88 93 101 100 101 99 102 105 117 137 157 169 166 156 159 160 154 177 183 119 132 146 159 165
320 319 318 311 303 297 299 278 234 326 278 160 177 269 289 279 314 19 46 119 130 206 83 146 123 150 169 123 127 252 249 85 100 66 59 123 43 24 66 82 64 33 61 73 99 83 100 179 74 69 32 69 60 96 117 100 99 94 89 79 77 96 111 119 124 118 114 113 108 97 87 86 87 87 91 115 140 152 159 160 153 118 113 110 107 114 100
317 317 310 296 283 346 305 221 194 150 218 239 281 299 301 5 9 354 2 74 36 118 148 138 118 197 146 153 83 306 28 107 166 81 153 79 116 1 57 45 84 104 42 35 49 66 49 45 85 82 42 89 89 80 80 81 83 90 91 90 82 81 80 84 104 110 108 102 98 95 105 109 103 97 96 93 79 70 79 82 87 87 84 79 76 106 123
312 307 298 284 156 76 57 343 311 267 14 331 316 357 8 22 356 329 1 19 252 104 287 98 138 150 90 89 129 265 51 137 128 112 43 126 74 47 123 108 158 89 71 62 31 28 81 39 60 91 91 88 101 97 100 99 102 97 93 92 93 97 106 102 89 93 97 93 94 103 86 83 84 81 86 83 88 94 100 97 82 76 85 84 75 65 64
296 276 241 263 246 206 152 198 74 50 322 253 48 57 14 24 20 344 283 235 44 7 275 101 185 130 104 82 80 13 126 157 95 76 99 303 100 321 5 88 301 76 80 78 82 308 62 47 55 60 85 106 101 126 124 112 107 112 111 116 125 141 139 132 131 127 135 140 152 142 133 129 114 104 93 81 69 82 97 98 91 81 84 92 100 98 89
248 266 304 251 49 264 1 7 353 16 52 70 321 101 146 245 120 276 319 33 328 283 56 98 162 106 120 129 136 1 298 88 131 172 138 37 351 148 227 76 91 97 146 120 207 92 118 124 111 96 112 110 115 163 117 115 118 129 134 139 146 142 131 132 124 117 106 101 96 93 95 101 109 116 116 115 104 81 75 90 105 103 90 86 102 102 103
295 295 317 27 9 117 167 182 249 11 56 33 23 315 86 311 258 143 108 277 176 229 241 126 55 70 78 109 99 123 279 106 249 128 107 103 253 62 62 108 238 89 101 91 179 86 115 120 132 121 187 175 170 157 110 99 102 105 124 141 138 133 116 101 117 108 98 91 85 84 87 90 84 81 82 94 103 103 101 93 90 101 100 92 97 107 121
0 242 318 314 278 256 98 26 22 48 325 276 108 227 198 178 327 41 139 157 226 60 28 67 67 89 104 99 126 109 334 284 102 85 101 64 302 105 169 105 54 124 121 212 139 88 114 97 104 128 177 164 159 121 101 103 103 100 91 108 139 139 123 120 117 115 112 103 92 90 89 93 91 95 110 113 112 115 122 115 99 96 111 109 120 126 129
290 255 191 263 229 71 172 68 256 135 109 30 36 49 332 101 229 162 201 292 329 76 60 36 123 123 61 59 33 15 164 242 75 34 69 164 282 52 84 42 96 67 197 136 105 152 123 124 139 194 190 132 122 113 113 114 110 106 109 19 71 133 144 146 135 124 117 113 109 104 101 94 104 115 105 98 100 95 90 95 113 115 106 115 133 127 133
255 207 183 249 75 10 5 19 280 44 4 60 115 154 252 176 239 345 104 179 247 59 126 131 174 99 71 17 124 214 22 358 8 67 36 38 85 49 54 67 108 246 42 67 145 145 148 130 173 172 150 135 136 128 120 116 115 128 113 94 89 87 117 120 112 112 115 115 113 113 106 110 109 96 95 108 118 121 119 117 128 123 126 112 114 134 151
329 7 71 38 21 43 57 324 305 111 182 191 141 197 173 183 195 198 188 210 119 170 169 124 138 108 109 103 42 18 88 141 313 94 212 95 56 50 121 182 196 71 125 209 120 68 53 80 110 125 134 124 126 123 123 130 142 136 127 102 68 62 80 107 113 120 123 123 126 121 115 120 105 96 91 84 79 96 126 145 160 145 167 116 114 134 174
260 126 75 78 7 311 153 170 158 233 256 150 210 195 183 218 186 198 183 108 124 148 142 139 94 92 85 78 129 197 294 91 66 114 135 81 93 31 301 54 84 117 248 150 114 128 158 167 150 140 138 128 125 123 122 122 120 117 111 118 142 122 64 102 119 118 129 130 131 130 146 148 136 136 127 131 149 134 99 116 118 115 136 124 145 155 188
281 18 167 83 114 247 240 173 216 215 164 189 216 217 206 213 191 164 171 139 144 155 119 103 110 133 124 145 32 13 38 74 93 329 45 66 99 240 323 97 247 179 148 186 130 129 170 170 153 147 130 127 126 125 124 125 116 105 103 100 92 99 122 98 111 127 132 125 120 137 153 152 149 138 141 155 170 148 140 142 142 128 102 95 96 95 111
245 213 146 118 224 189 206 243 193 233 237 203 206 221 217 166 121 134 106 103 114 81 89 93 87 92 64 313 76 129 87 47 68 348 9 131 40 40 24 18 327 258 187 173 167 149 151 158 150 137 132 129 130 129 126 123 117 110 101 92 92 105 97 88 86 101 117 121 113 106 98 86 86 94 101 94 97 124 139 133 117 112 127 147 179 133 141
263 198 179 205 197 172 238 243 209 230 222 207 188 142 129 109 92 101 110 116 111 119 126 124 153 96 79 91 83 64 56 330 89 232 277 44 93 172 155 179 186 218 267 171 133 140 150 151 139 132 128 126 123 127 124 121 121 117 117 120 132 103 110 111 107 97 92 94 97 94 91 97 93 88 108 114 84 63 65 83 82 75 39 33 69 44 15
279 323 347 286 248 256 252 253 217 204 3 47 30 81 100 87 85 87 88 86 91 93 65 48 49 93 150 113 93 85 135 228 123 117 87 122 163 192 126 161 238 191 235 85 117 144 136 135 127 128 129 130 126 123 116 118 118 117 111 106 95 80 83 87 78 70 83 105 97 100 104 84 69 279 112 113 113 105 66 107 131 137 164 133 114 110 101
293 214 236 232 227 246 211 229 194 92 39 46 335 86 109 109 114 100 57 87 85 80 69 124 179 129 99 48 57 128 199 96 85 140 146 168 194 161 173 184 235 122 110 123 127 126 126 118 123 128 130 129 122 120 121 125 119 119 120 126 141 128 105 94 89 69 71 86 85 78 74 85 117 116 113 94 81 60 1 285 201 190 189 188 150 161 188
301 285 266 261 229 257 263 256 106 135 160 165 235 88 100 102 101 82 83 91 73 97 174 166 90 52 71 131 192 119 84 78 97 114 112 244 184 153 195 192 170 127 132 121 119 112 102 113 120 125 125 120 124 124 124 123 122 125 132 149 132 118 121 128 138 124 101 97 96 97 81 332 328 91 83 71 348 153 318 298 291 157 126 135 156 154 112